Regional Weather Roundup
Issued by NWS Wakefield, VA

Home | Current Version | Previous Version | Graphics & Text | Print | Product List | Glossary On
Versions: 1 2 3 4 5 6 7 8 9 10 11 12 13 14 15 16 17 18 19 20 21 22 23 24 25 26 27 28
000
ASUS41 KAKQ 230115
RWRAKQ

REGIONAL WEATHER ROUNDUP
NATIONAL WEATHER SERVICE WAKEFIELD VA
900 PM EDT THU JUN 22 2017

Note: "fair" indicates few or no clouds below 12,000 feet with no
significant weather and/or obstructions to visibility. * = Denotes
station may not report precipitation (e.g., rain,snow,etc.),
thunder or fog.

VAZ042-051-052>054-056-230200-
NORTHERN VIRGINIA

CITY           SKY/WX    TMP DP  RH WIND       PRES   REMARKS
WASH NATIONAL  CLOUDY    84  74  71 SW8       29.95R
DULLES         CLOUDY    80  70  71 S7        29.96R
FORT BELVOIR   CLOUDY    82  72  72 CALM      29.95R
QUANTICO       MOCLDY    84  72  67 VRB5      29.95S
FREDERICKSBRG* MOCLDY    82  73  76 S5        29.95S
STAFFORD*      MOCLDY    79  71  75 CALM      30.00S
WARRENTON      MOCLDY    80  69  70 CALM      29.96R
CULPEPER*      CLOUDY    79  73  82 CALM      29.97S
MANASSAS*      MOCLDY    79  72  79 S3        29.96R
LEESBURG*      PTCLDY    81  73  78 CALM      29.97R
WINCHESTER     CLOUDY    79  72  78 S3        29.97S
FRONT ROYAL*   CLOUDY    77  73  88 CALM      29.96R
LURAY*         PTCLDY    77  72  83 CALM      29.98S
$$

VAZ048-049-060>072-079>083-230200-
CENTRAL AND SOUTH CENTRAL VIRGINIA

CITY           SKY/WX    TMP DP  RH WIND       PRES   REMARKS
RICHMOND       CLOUDY    81  70  69 SW7       29.98S
CHESTERFIELD*  NOT AVBL
PETERSBURG*    CLOUDY    75  71  86 CALM      30.00R
HANOVER        CLOUDY    81  67  62 SW7       29.99R
TAPPAHANNOCK*  CLOUDY    79  72  79 S3        29.98S
QUINTON*       FAIR      79  73  81 MISG      29.98R
CHARLOTTSVILLE CLOUDY    79  72  79 S6        29.97F
GORDONSVILLE*  PTCLDY    78  72  82 SW6       29.97S
ORANGE*        CLOUDY    77  72  83 CALM      29.97S
LOUISA*        CLOUDY    82  75  78 S3        29.97S
BUMPASS*       FAIR      78  74  90 CALM      29.98S
FARMVILLE*     CLOUDY    79  67  66 SW10      29.99R
CREWE*         FAIR      78  71  79 S3        30.00S
FORT PICKETT*  FAIR     N/A N/A N/A SW9       30.01R
CHASE CITY*    FAIR      76  73  91 CALM      30.03R
CLARKSVILLE*   FAIR      73  73 100 SW3       30.02S
SOUTH HILL*    CLOUDY    76  73  90 SW7       30.08R
LAWRENCEVILLE* FAIR      77  72  84 SW6       30.02R
EMPORIA*       CLOUDY    77  72  83 S5        30.02S
$$

VAZ088>098-230200-
SOUTHEAST VIRGINIA

CITY           SKY/WX    TMP DP  RH WIND       PRES   REMARKS
NORFOLK        CLOUDY    84  73  69 SW10      29.98S
VIRGINIA BEACH CLOUDY    81  71  71 SW6       29.98S
NORFOLK NAVAL  CLOUDY    83  73  72 SW8       30.00S
WEST POINT*    CLOUDY    80  71  74 SW5       29.99S
SALUDA*        FAIR      80  76  89 CALM      29.97S
NEWPORT NEWS   CLOUDY    81  73  76 SW7       29.98S
LANGLEY AFB    CLOUDY    82  74  76 SW8       29.98R
FORT EUSTIS    CLOUDY    81  75  83 S5        29.96S
WILLIAMSBURG*  CLOUDY    82  73  74 CALM      30.00R
HR EXEC AP*    FAIR      81  73  78 SW6       29.97S
FRANKLIN*      MOCLDY    79  73  83 SW7       30.01R
US460-WAKEFLD  CLOUDY    80  76  87 SW3       29.99S
$$

VAZ020-022-025-037-045-230200-
WEST CENTRAL AND SOUTHWEST VIRGINIA

CITY           SKY/WX    TMP DP  RH WIND       PRES   REMARKS
STAUNTON*      PTCLDY    76  68  75 S5        30.03S
WAYNESBORO*    CLOUDY    75  70  84 S9        30.03R
HOT SPRINGS VA PTCLDY    68  55  64 W12       30.15F
LYNCHBURG      CLOUDY    76  71  85 S8        30.03R
DANVILLE       CLOUDY    74  73  97 SW5       30.04R
SOUTH BOSTON*  FAIR      75  70  84 S3        30.03R
MARTINSVILLE   DRIZZLE   73  69  87 CALM      30.08R
ROANOKE        CLOUDY    77  67  71 W10       30.06R
BLACKSBURG     LGT RAIN  70  67  88 W3        30.13S
DUBLIN*        LGT RAIN  72  66  82 SW3       30.11S
MARION*        CLOUDY    69  66  88 CALM      30.14S
HILLSVILLE*    DRIZZLE   67  63  86 CALM      30.12F
RICHLANDS*     CLOUDY    68  65  90 S5        30.10F
WISE*          CLOUDY    68  68 100 S7        30.09S
ABINGDON*      CLOUDY    72  71  98 SE5       30.07F
$$

MDZ021>025-VAZ099-100-230200-
SOUTHERN MARYLAND AND THE DELMARVA PENINSULA

CITY           SKY/WX    TMP DP  RH WIND       PRES   REMARKS
PATUXENT RIVER CLOUDY    82  73  74 SW6       29.95S
BAY BRIDGE APT CLOUDY    81  73  78 S5        29.95R
LEONARDTOWN    CLOUDY    81  72  74 SW5       29.97S
DOVER          CLOUDY    80  77  89 SW7       29.93S
GEORGETOWN     CLOUDY    80  73  79 S5        29.96S
EASTON         CLOUDY    82  72  69 CALM      29.99S
CAMBRIDGE      CLEAR     81  73  78 CALM      29.95S
SALISBURY      CLOUDY    78  76  93 CALM      29.96R
OCEAN CITY     CLOUDY    76  71  85 SW5       29.97S
WALLOPS ISLAND CLOUDY    78  75  90 S5        29.97S
ACCOMACK*      CLOUDY    82  73  76 SW6       29.97S
$$

NCZ012>017-030>032-230200-
NORTH CENTRAL AND EASTERN NORTH CAROLINA

CITY           SKY/WX    TMP DP  RH WIND       PRES   REMARKS
ROANOKE RAPIDS FAIR      77  72  83 SW5       30.02R
RALEIGH        CLOUDY    75  71  87 SW13      30.06R
ELIZABETH CITY MOCLDY    80  76  87 SW9       30.01S
AHOSKIE*         N/A     77  74  90 CALM      30.02S
EDENTON*       MOCLDY    82  75  78 CALM      30.02S
CURRITUCK*     MOCLDY    82  74  78 SW6       30.01S
KILL DEVIL HLS MOCLDY    81  73  76 CALM      30.00S
MANTEO         MOCLDY    81  74  80 W12       30.02S
CAPE HATTERAS  CLOUDY    80  75  84 SW9       30.04F
TARBORO*       NOT AVBL
GOLDSBORO      MOCLDY    77  77 100 S5        30.04S
WASHINGTON     DRIZZLE   78  76  94 SW6       30.04S
GREENVILLE     CLOUDY    79  73  83 SW7       30.06S
NEW BERN       CLOUDY    76  75  97 SW3       30.07R
WILMINGTON     CLOUDY    78  76  93 S3        30.07S
$$

VAZ048-230200-
ELSEWHERE

CITY           SKY/WX    TMP DP  RH WIND       PRES   REMARKS
HARRISBURG PA  TSTM      78  73  84 NW8       29.94R
BALTIMORE      CLOUDY    80  72  76 CALM      29.95R
ANNAPOLIS      CLOUDY    82  75  79 CALM      29.95R
ANDREWS AFB    NOT AVBL
PHILADELPHIA   CLOUDY    84  68  58 SW10      29.93S
HENDERSON NC   CLOUDY    72  69  90 SW7       30.03F
GREENSBORO     LGT RAIN  74  73  97 SW9       30.07R
ROCKY MOUNT    MOCLDY    77  73  87 SW8       30.04R
$$

VAZ100-230200-
MARINE

STATION/POSITION TIME  TEMP    WIND        PRES    WAVE   SWELL
                       AIR SEA DIR/SP/G            HT/PER HT/PER
                 (UTC) (F)     (DEG/KT/KT) (MB)    (FT/S) (FT/S)
BRANDYWINE LGT   0042   82     240/ 11/ 12 1014.3S
CAPE MAY NJ      0048   76 66  210/  6/  8 1013.9R
LEWES DE         0042   81 73  220/  3/  4 1014.1S
15NM E FENWICK I 0050   71 69  210/  6/  8 1014.9R   2/ 6   2/ 6
OCEAN-CITY-INLET 0048   68 64  210/  6/  7 1014.8S
WACHAPREAGUE VA  0048   81 79  230/  4/  5 1014.8R
THOMAS POINT MD  0100   82 78  180/  7/  7   N/A
GOOSES REEF MD   0050   82     200/  4/  4 1015.0R
COVE POINT MD    0048   82     220/  9/ 11 1014.7S
SOLOMONS ISLAND  0042   81 76  220/  6/  8   N/A
BISHOPS HEAD MD  0048   82 83  210/  7/  7 1014.6S
PINEY POINT MD   0042          250/  2/  3   N/A
POTOMAC MD       0050   83     250/  8/ 10 1013.5S
CAMBRIDGE MD     0048   82 82              1015.0R
LEWISETTA VA     0048   82 80  240/  7/  8 1014.4S
RAPPAHANNOCK LGT 0042          210/  6/  6 1015.7R
STINGRAY PT      0050   80     260/  4/  4 1015.1S
YORK RVR RNG VA  0048   82     260/  7/  8 1015.5R
YORKTOWN VA      0048   81 77  250/  4/  5 1014.9R
JAMESTOWN VA     0050   81     210/  4/  6   N/A
DOMINION TERM VA 0048   80     240/  6/  7 1015.5S
KIPTOPEKE VA     0042      79  250/  5/  7   N/A
CHES BAY BRIDGE  0036   81 74  260/ 10/ 11 1015.1S
CAPE HENRY VA    0036   83     230/  8/ 11   N/A
WILLOUBY STN VA  0036   81     230/ 11/ 12 1015.1F
S CRANEY ISL VA  0048   82     220/  5/  9 1015.3R
CAPE HENRY BUOY  0030      76                N/A     2/13
1ST LANDING BUOY 0050   81                 1015.2R
CAPE CHARLES BUO 0051      72                N/A     1/ 9
64NM E OF VA BCH 0050   74 72  210/ 12/ 14 1015.9F   2/ 8   2/ 8
DUCK PIER NC     0036   81 66  230/ 11/ 13 1015.7S
44100 DUCK FRF   0005      71                N/A     2/ 9
OREGON INLET NC  0036   80 82  230/ 11/ 13 1016.5S
HATTERAS NC      0036   79 80  230/  7/  9 1017.2F
DIAMOND SHLS NC  0050   80 80  240/ 14/ 16 1017.4R   3/ 9   2/ 9
CAPE LOOKOUT NC  0100   78     210/  6/  8 1017.5R
$$




USA.gov is the U.S. government's official web portal to all federal, state and local government web resources and services.